RANA Weather Reports


Display with metric or nautical units.
time (UTC)temp
F
wind
direction
speed
MPH
gust
MPH
rain 1hr
in
rain 24hr
in
rain mn
in
humidity
%
barometer
mb
20260901203011 64 304 7.0 9.0 0.00 0.00 0.00 57
20260901202510 64 298 7.0 9.0 0.00 0.00 0.00 56
20260901202015 64 299 7.0 9.0 0.00 0.00 0.00 58
20260901201509 64 297 7.0 9.0 0.00 0.00 0.00 59
20260901201010 64 295 7.0 7.0 0.00 0.00 0.00 57
20260901200510 64 300 7.0 9.0 0.00 0.00 0.00 56
20260901200011 64 298 9.0 9.0 0.00 0.00 0.00 59
20260901195511 64 295 7.0 9.0 0.00 0.00 0.00 59
20260901195010 64 294 9.0 9.0 0.00 0.00 0.00 58
20260901194510 64 287 9.0 9.0 0.00 0.00 0.00 58
20260901194009 64 287 9.0 9.0 0.00 0.00 0.00 57
20260901193511 64 282 9.0 9.0 0.00 0.00 0.00 57
20260901193010 66 281 9.0 9.0 0.00 0.00 0.00 57
20260901192511 66 283 9.0 9.0 0.00 0.00 0.00 57
20260901192017 66 284 9.0 9.0 0.00 0.00 0.00 57
20260901191511 66 287 9.0 9.0 0.00 0.00 0.00 57
20260901191011 66 274 9.0 9.0 0.00 0.00 0.00 56
20260901190510 66 265 7.0 9.0 0.00 0.00 0.00 55
20260901190010 66 272 9.0 9.0 0.00 0.00 0.00 54
20260901185511 66 272 11.0 11.0 0.00 0.00 0.00 54
20260901185010 66 273 11.0 13.0 0.00 0.00 0.00 53
20260901184510 66 271 11.0 11.0 0.00 0.00 0.00 54
20260901184010 66 270 11.0 11.0 0.00 0.00 0.00 53
20260901183510 66 272 9.0 11.0 0.00 0.00 0.00 52
20260901183010 66 275 11.0 11.0 0.00 0.00 0.00 52
20260901182510 66 274 11.0 11.0 0.00 0.00 0.00 52
20260901182012 66 274 9.0 11.0 0.00 0.00 0.00 52
20260901181511 66 278 9.0 11.0 0.00 0.00 0.00 52
20260901181010 66 278 11.0 11.0 0.00 0.00 0.00 52
20260901180510 66 277 11.0 11.0 0.00 0.00 0.00 52
20260901180010 66 275 11.0 11.0 0.00 0.00 0.00 51
20260901175511 66 275 13.0 13.0 0.00 0.00 0.00 51
20260901175011 66 276 11.0 13.0 0.00 0.00 0.00 51
20260901174509 68 275 9.0 11.0 0.00 0.00 0.00 51
20260901173510 68 282 11.0 11.0 0.00 0.00 0.00 50
20260901173010 68 278 11.0 11.0 0.00 0.00 0.00 50
20260901172510 68 280 9.0 11.0 0.00 0.00 0.00 50
20260901172016 68 284 9.0 11.0 0.00 0.00 0.00 50
20260901171510 68 282 9.0 11.0 0.00 0.00 0.00 50
20260901171011 68 286 9.0 11.0 0.00 0.00 0.00 51
20260901170511 68 285 11.0 11.0 0.00 0.00 0.00 50
20260901170011 68 283 11.0 13.0 0.00 0.00 0.00 50
20260901165510 68 281 11.0 13.0 0.00 0.00 0.00 50
20260901165010 68 282 11.0 13.0 0.00 0.00 0.00 50
20260901164509 68 281 11.0 11.0 0.00 0.00 0.00 50
20260901164011 68 280 13.0 13.0 0.00 0.00 0.00 50
20260901163510 68 277 13.0 16.0 0.00 0.00 0.00 49
20260901163010 68 278 13.0 16.0 0.00 0.00 0.00 48
20260901162513 70 271 13.0 16.0 0.00 0.00 0.00 48
20260901162009 70 285 9.0 11.0 0.00 0.00 0.00 47
20260901161511 72 275 9.0 11.0 0.00 0.00 0.00 47
20260901161010 70 277 9.0 11.0 0.00 0.00 0.00 47
20260901160510 70 292 9.0 9.0 0.00 0.00 0.00 49
20260901160010 70 271 11.0 13.0 0.00 0.00 0.00 46
20260901155511 70 286 13.0 16.0 0.00 0.00 0.00 47
20260901155010 70 295 11.0 16.0 0.00 0.00 0.00 47
20260901154510 70 287 13.0 13.0 0.00 0.00 0.00 46
20260901154011 70 287 9.0 11.0 0.00 0.00 0.00 48
20260901153510 70 293 11.0 11.0 0.00 0.00 0.00 48
20260901153010 68 282 13.0 13.0 0.00 0.00 0.00 48
20260901152511 70 285 11.0 11.0 0.00 0.00 0.00 48
20260901152012 70 281 11.0 13.0 0.00 0.00 0.00 48
20260901151511 70 269 13.0 16.0 0.00 0.00 0.00 48
20260901151011 70 274 13.0 16.0 0.00 0.00 0.00 48
20260901150510 70 270 9.0 11.0 0.00 0.00 0.00 48
20260901150011 72 293 4.0 7.0 0.00 0.00 0.00 48
20260901145510 70 302 2.0 4.0 0.00 0.00 0.00 49
20260901145010 70 277 4.0 4.0 0.00 0.00 0.00 48
20260901144510 70 323 4.0 7.0 0.00 0.00 0.00 47
20260901144010 70 323 7.0 9.0 0.00 0.00 0.00 48
20260901143510 70 336 4.0 7.0 0.00 0.00 0.00 49
20260901143011 70 328 4.0 9.0 0.00 0.00 0.00 47
20260901142510 70 331 2.0 4.0 0.00 0.00 0.00 47
20260901142015 68 329 4.0 7.0 0.00 0.00 0.00 50
20260901141510 68 323 4.0 7.0 0.00 0.00 0.00 51
20260901141011 70 322 7.0 9.0 0.00 0.00 0.00 50
20260901140511 72 313 7.0 9.0 0.00 0.00 0.00 47
20260901140010 70 311 2.0 4.0 0.00 0.00 0.00 50
20260901135511 70 310 7.0 9.0 0.00 0.00 0.00 49
20260901135010 68 309 4.0 9.0 0.00 0.00 0.00 52
20260901134510 70 304 7.0 7.0 0.00 0.00 0.00 47
20260901134010 68 311 4.0 4.0 0.00 0.00 0.00 52
20260901133510 68 312 2.0 7.0 0.00 0.00 0.00 51
20260901133010 68 328 4.0 7.0 0.00 0.00 0.00 52
20260901132511 68 300 7.0 9.0 0.00 0.00 0.00 51
20260901132010 68 260 9.0 13.0 0.00 0.00 0.00 49
20260901131511 70 285 11.0 13.0 0.00 0.00 0.00 48
20260901131010 72 271 13.0 18.0 0.00 0.00 0.00 46
20260901130510 72 246 4.0 7.0 0.00 0.00 0.00 47
20260901130011 70 257 13.0 18.0 0.00 0.00 0.00 47
20260901125510 70 262 11.0 13.0 0.00 0.00 0.00 48
20260901125010 70 246 9.0 11.0 0.00 0.00 0.00 51
20260901124511 70 271 18.0 20.0 0.00 0.00 0.00 48
20260901124010 70 260 13.0 13.0 0.00 0.00 0.00 48
20260901123511 72 239 9.0 11.0 0.00 0.00 0.00 49
20260901123011 70 249 9.0 11.0 0.00 0.00 0.00 49
20260901122510 68 263 13.0 16.0 0.00 0.00 0.00 51
20260901122012 68 301 11.0 16.0 0.00 0.00 0.00 51
20260901121510 68 289 11.0 13.0 0.00 0.00 0.00 54
20260901121010 66 263 13.0 18.0 0.00 0.00 0.00 54
20260901120517 66 261 11.0 11.0 0.00 0.00 0.00 52
20260901120011 66 285 16.0 18.0 0.00 0.00 0.00 52
20260901115511 68 275 9.0 13.0 0.00 0.00 0.00 51
20260901115010 68 272 9.0 11.0 0.00 0.00 0.00 51
20260901114510 68 288 11.0 11.0 0.00 0.00 0.00 52
20260901114010 66 291 13.0 16.0 0.00 0.00 0.00 54
20260901113511 66 270 11.0 13.0 0.00 0.00 0.00 55
20260901113010 66 256 9.0 11.0 0.00 0.00 0.00 56
20260901112511 66 271 9.0 11.0 0.00 0.00 0.00 55
20260901112010 66 273 13.0 16.0 0.00 0.00 0.00 55
20260901111510 66 264 11.0 13.0 0.00 0.00 0.00 55
20260901111011 64 280 20.0 22.0 0.00 0.00 0.00 56
20260901110511 66 259 18.0 20.0 0.00 0.00 0.00 55
20260901110010 66 255 16.0 18.0 0.00 0.00 0.00 56
20260901105510 66 280 13.0 16.0 0.00 0.00 0.00 56
20260901105011 64 256 9.0 11.0 0.00 0.00 0.00 58
20260901104510 66 277 20.0 22.0 0.00 0.00 0.00 54
20260901104010 68 248 11.0 13.0 0.00 0.00 0.00 55
20260901103511 66 254 13.0 16.0 0.00 0.00 0.00 57
20260901103010 66 250 11.0 13.0 0.00 0.00 0.00 59
20260901102511 64 246 13.0 16.0 0.00 0.00 0.00 58
20260901102009 64 253 9.0 11.0 0.00 0.00 0.00 58
20260901101511 64 270 18.0 25.0 0.00 0.00 0.00 58
20260901101010 64 274 13.0 16.0 0.00 0.00 0.00 58
20260901100518 64 276 13.0 16.0 0.00 0.00 0.00 59
20260901100011 64 261 13.0 16.0 0.00 0.00 0.00 59
20260901095510 64 266 13.0 16.0 0.00 0.00 0.00 56
20260901095010 64 276 16.0 18.0 0.00 0.00 0.00 58
20260901094511 64 268 13.0 16.0 0.00 0.00 0.00 60
20260901094010 64 273 16.0 18.0 0.00 0.00 0.00 58
20260901093510 64 267 16.0 18.0 0.00 0.00 0.00 58
20260901093011 64 265 16.0 18.0 0.00 0.00 0.00 58
20260901092510 64 270 13.0 18.0 0.00 0.00 0.00 59
20260901092012 64 292 18.0 20.0 0.00 0.00 0.00 58
20260901091510 64 288 11.0 16.0 0.00 0.00 0.00 58
20260901091011 64 297 16.0 18.0 0.00 0.00 0.00 58
20260901090510 64 278 18.0 20.0 0.00 0.00 0.00 58
20260901090010 64 290 20.0 27.0 0.00 0.00 0.00 58
20260901085511 64 276 20.0 25.0 0.00 0.00 0.00 58
20260901085010 64 289 16.0 18.0 0.00 0.00 0.00 60
20260901084510 64 288 11.0 13.0 0.00 0.00 0.00 62
20260901084011 64 300 18.0 20.0 0.00 0.00 0.00 60
20260901083511 64 287 16.0 20.0 0.00 0.00 0.00 61
20260901083011 64 297 18.0 22.0 0.00 0.00 0.00 61
20260901082511 63 282 20.0 25.0 0.00 0.00 0.00 62
20260901082010 63 290 20.0 22.0 0.00 0.00 0.00 64
20260901081510 63 287 13.0 18.0 0.00 0.00 0.00 64
20260901081010 63 275 16.0 18.0 0.00 0.00 0.00 67
20260901080511 63 278 13.0 16.0 0.00 0.00 0.00 67
20260901080011 61 293 11.0 13.0 0.00 0.00 0.00 68
20260901075510 61 282 16.0 20.0 0.00 0.00 0.00 68
20260901075011 61 277 20.0 22.0 0.00 0.00 0.00 68
20260901074510 61 290 18.0 18.0 0.00 0.00 0.00 67
20260901074010 61 284 16.0 16.0 0.00 0.00 0.00 68
20260901073510 63 282 16.0 20.0 0.00 0.00 0.00 69
20260901073011 63 277 20.0 25.0 0.00 0.00 0.00 67
20260901072509 61 296 18.0 20.0 0.00 0.00 0.00 67
20260901072016 61 281 22.0 25.0 0.00 0.00 0.00 67
20260901071511 61 284 18.0 22.0 0.00 0.00 0.00 69
20260901071010 61 275 18.0 20.0 0.00 0.00 0.00 69
20260901070518 61 276 20.0 22.0 0.00 0.00 0.00 70
20260901070011 61 280 18.0 20.0 0.00 0.00 0.00 71
20260901065511 61 282 16.0 18.0 0.00 0.00 0.00 71
20260901065011 61 278 16.0 18.0 0.00 0.00 0.00 72
20260901064511 61 283 16.0 18.0 0.00 0.00 0.00 74
20260901064010 61 285 9.0 11.0 0.00 0.00 0.00 74
20260901063510 61 281 9.0 9.0 0.00 0.00 0.00 75
20260901063011 59 287 9.0 11.0 0.00 0.00 0.00 79
20260901062510 59 273 11.0 11.0 0.00 0.00 0.00 77
20260901062011 59 268 11.0 13.0 0.00 0.00 0.00 75
20260901061510 59 260 13.0 16.0 0.00 0.00 0.00 74
20260901061010 61 259 11.0 11.0 0.00 0.00 0.00 74
20260901060510 61 252 11.0 11.0 0.00 0.00 0.00 74
20260901060011 59 262 11.0 13.0 0.00 0.00 0.00 76
20260901055511 59 269 9.0 11.0 0.00 0.00 0.00 77
20260901055011 59 278 7.0 9.0 0.00 0.00 0.00 78
20260901054510 57 277 11.0 11.0 0.00 0.00 0.00 78
20260901054011 57 274 11.0 13.0 0.00 0.00 0.00 78
20260901053511 57 277 16.0 18.0 0.00 0.00 0.00 77
20260901053010 57 275 18.0 20.0 0.00 0.00 0.00 79
20260901052511 57 277 18.0 18.0 0.00 0.00 0.00 81
20260901052010 57 275 18.0 20.0 0.00 0.00 0.00 81
20260901051510 57 274 20.0 22.0 0.00 0.00 0.00 80
20260901051010 57 274 22.0 25.0 0.00 0.00 0.00 81
20260901050510 55 274 20.0 22.0 0.00 0.00 0.00 81
20260901050010 55 275 20.0 22.0 0.00 0.00 0.00 81
20260901045510 57 274 20.0 22.0 0.00 0.00 0.00 81
20260901045011 57 276 20.0 22.0 0.00 0.00 0.00 80
20260901044510 55 272 22.0 25.0 0.00 0.00 0.00 81
20260901044010 57 275 22.0 22.0 0.00 0.00 0.00 80
20260901043510 57 273 25.0 25.0 0.00 0.00 0.00 80
20260901043011 55 270 22.0 22.0 0.00 0.00 0.00 81
20260901042509 55 269 22.0 25.0 0.00 0.00 0.00 82
20260901042010 55 266 20.0 22.0 0.00 0.00 0.00 82
20260901041511 55 269 20.0 22.0 0.00 0.00 0.00 83
20260901041010 55 265 22.0 25.0 0.00 0.00 0.00 82
20260901040510 55 268 20.0 22.0 0.00 0.00 0.00 82
20260901040011 55 269 20.0 25.0 0.00 0.00 0.00 83
20260901035510 55 268 20.0 22.0 0.00 0.00 0.00 83
20260901035010 55 269 22.0 25.0 0.00 0.00 0.00 83
20260901034511 55 272 18.0 20.0 0.00 0.00 0.00 83
20260901034011 55 270 22.0 25.0 0.00 0.00 0.00 82
20260901033510 55 267 22.0 25.0 0.00 0.00 0.00 81
20260901033011 55 259 20.0 22.0 0.00 0.00 0.00 81
20260901032511 57 257 20.0 22.0 0.00 0.00 0.00 80
20260901032012 57 260 22.0 22.0 0.00 0.00 0.00 80
20260901031510 57 258 20.0 22.0 0.00 0.00 0.00 80
20260901031010 57 257 18.0 20.0 0.00 0.00 0.00 80
20260901030511 57 258 18.0 20.0 0.00 0.00 0.00 79
20260901030011 57 262 20.0 22.0 0.00 0.00 0.00 79
20260901025511 57 261 18.0 18.0 0.00 0.00 0.00 79
20260901025010 57 263 18.0 18.0 0.00 0.00 0.00 79
20260901024510 57 266 18.0 20.0 0.00 0.00 0.00 78
20260901024011 57 266 18.0 20.0 0.00 0.00 0.00 79
20260901023511 57 266 18.0 18.0 0.00 0.00 0.00 79
20260901023010 57 268 18.0 20.0 0.00 0.00 0.00 78
20260901022510 57 265 20.0 20.0 0.00 0.00 0.00 79
20260901022015 57 271 20.0 20.0 0.00 0.00 0.00 79
20260901021510 57 272 18.0 20.0 0.00 0.00 0.00 80
20260901021010 57 271 20.0 22.0 0.00 0.00 0.00 80
20260901020510 57 271 25.0 27.0 0.00 0.00 0.00 79
20260901020011 57 272 22.0 22.0 0.00 0.00 0.00 80
20260901015511 57 275 20.0 22.0 0.00 0.00 0.00 80
20260901015010 57 271 20.0 22.0 0.00 0.00 0.00 80
20260901014511 57 270 20.0 22.0 0.00 0.00 0.00 80
20260901014011 57 270 20.0 22.0 0.00 0.00 0.00 79
20260901013510 57 267 18.0 20.0 0.00 0.00 0.00 79
20260901013011 57 273 20.0 20.0 0.00 0.00 0.00 78
20260901012510 57 273 20.0 22.0 0.00 0.00 0.00 78
20260901012010 57 272 22.0 22.0 0.00 0.00 0.00 78
20260901011511 57 272 22.0 25.0 0.00 0.00 0.00 77
20260901011010 57 271 22.0 25.0 0.00 0.00 0.00 77
20260901010510 57 269 22.0 22.0 0.00 0.00 0.00 76
20260901010010 59 264 22.0 25.0 0.00 0.00 0.00 76
20260901005511 59 263 18.0 20.0 0.00 0.00 0.00 76
20260901005010 59 260 20.0 20.0 0.00 0.00 0.00 76
20260901004510 59 261 20.0 22.0 0.00 0.00 0.00 76
20260901004010 59 266 20.0 22.0 0.00 0.00 0.00 76
20260901003510 59 266 22.0 25.0 0.00 0.00 0.00 76
20260901003011 59 268 22.0 25.0 0.00 0.00 0.00 76
20260901002510 57 266 22.0 25.0 0.00 0.00 0.00 76
20260901002011 59 268 22.0 25.0 0.00 0.00 0.00 76
20260901001510 59 266 22.0 25.0 0.00 0.00 0.00 75
20260901001010 59 268 22.0 25.0 0.00 0.00 0.00 75
20260901000511 59 267 22.0 25.0 0.00 0.00 0.00 75
20260901000011 59 262 22.0 25.0 0.00 0.00 0.00 75
20260831235511 59 268 22.0 27.0 0.00 0.00 0.00 75
20260831235010 59 271 20.0 22.0 0.00 0.00 0.00 76
20260831234511 59 262 20.0 20.0 0.00 0.00 0.00 75
20260831234010 59 263 22.0 22.0 0.00 0.00 0.00 74
20260831233511 59 275 22.0 25.0 0.00 0.00 0.00 73
20260831233011 59 272 22.0 27.0 0.00 0.00 0.00 73
20260831232511 59 266 20.0 22.0 0.00 0.00 0.00 73
20260831232010 59 267 25.0 27.0 0.00 0.00 0.00 72
20260831231511 59 266 25.0 27.0 0.00 0.00 0.00 72
20260831231011 59 271 22.0 27.0 0.00 0.00 0.00 71
20260831230510 59 265 22.0 25.0 0.00 0.00 0.00 71
20260831230010 59 257 20.0 25.0 0.00 0.00 0.00 70
20260831225510 61 251 20.0 22.0 0.00 0.00 0.00 69
20260831225010 61 245 18.0 20.0 0.00 0.00 0.00 68
20260831224511 61 247 18.0 20.0 0.00 0.00 0.00 67
20260831224010 61 253 20.0 25.0 0.00 0.00 0.00 67
20260831223510 61 263 22.0 22.0 0.00 0.00 0.00 67
20260831223011 61 268 25.0 27.0 0.00 0.00 0.00 67
20260831222510 61 268 29.0 31.0 0.00 0.00 0.00 66
20260831222011 61 265 29.0 34.0 0.00 0.00 0.00 66
20260831221511 61 261 27.0 29.0 0.00 0.00 0.00 66
20260831221011 61 265 25.0 27.0 0.00 0.00 0.00 66
20260831220511 61 263 25.0 31.0 0.00 0.00 0.00 65
20260831220010 61 259 25.0 29.0 0.00 0.00 0.00 65
20260831215511 63 258 20.0 27.0 0.00 0.00 0.00 65
20260831215010 63 252 22.0 25.0 0.00 0.00 0.00 63
20260831214511 63 238 16.0 16.0 0.00 0.00 0.00 61
20260831214010 63 235 13.0 16.0 0.00 0.00 0.00 62
20260831213511 63 256 9.0 9.0 0.00 0.00 0.00 63
20260831213010 63 279 7.0 9.0 0.00 0.00 0.00 62
20260831212510 63 293 7.0 11.0 0.00 0.00 0.00 63
20260831212012 63 292 7.0 9.0 0.00 0.00 0.00 63
20260831211511 63 290 9.0 11.0 0.00 0.00 0.00 63
20260831211010 63 288 11.0 11.0 0.00 0.00 0.00 62
20260831210511 63 282 9.0 11.0 0.00 0.00 0.00 63
20260831210010 63 289 11.0 16.0 0.00 0.00 0.00 63
20260831205511 63 296 11.0 11.0 0.00 0.00 0.00 64
20260831205010 63 291 11.0 13.0 0.00 0.00 0.00 65
20260831204511 64 277 16.0 18.0 0.00 0.00 0.00 60
20260831204010 64 268 16.0 18.0 0.00 0.00 0.00 58
20260831203510 64 269 16.0 18.0 0.00 0.00 0.00 58